User: anonymous   Login
Location: Unspecified
(35.6961°N, 0.0000°E)
Time: 23:58:29
(UTC+00:00)
Language:

EO-79 - Orbit

View from above orbital plane
View from above orbital plane
View from above satellite
View from above satellite

Ground track
Ground track

The orbit data is extracted from the following two-line orbital elements,

1 40025U 14033R   19169.02820524  .00000148  00000-0  21761-4 0  9995
2 40025  97.9064  88.7134 0013885  64.4788 295.7863 14.88940660271221
Epoch (UTC): 18 June 2019 00:40:36
Eccentricity: 0.0013885
inclination: 97.9064°
perigee height: 591 km
apogee height: 611 km
right ascension of ascending node: 88.7134°
argument of perigee: 64.4788°
revolutions per day: 14.88940660
mean anomaly at epoch: 295.7863°
orbit number at epoch: 27122

The dashed part of the orbit path shows where the satellite is in the earth's shadow,  

DLR